[[{"header":{"parameterUnit":"m.s-1","parameterCategory":2,"la1":30.2991,"la2":30.254,"lo1":-89.0895,"lo2":-89.0444,"dy":0.0017,"dx":0.0017,"nx":28,"ny":28,"refTime":"2024-08-01T03:00:00:Z","depth":"0","parameterNumber":2,"parameterNumberName":"U-component_of_CURRENTS"},"data":[0,0,0,0,0,0,0,0,0,0,0,0,0,0,0,0,0,0,0,0,0,0,0,0,0,0,0,0,0,0,0,0,0,0,0,0,0,0,0,0,0,0,0,0,0,0,0,0,0,0,0,0,0,0,0,0,0,0,0.4424,0.4425,0,0.4507,0.4507,0.4508,0.4523,0.4522,0.4522,0.4521,0.4542,0.4543,0.4544,0,0,0,0,0,0,0,0,0,0,0,0,0,0.4157,0.4162,0.4424,0.4425,0.4426,0.4506,0.4507,0.4508,0.4523,0.4522,0.4521,0.4521,0.4541,0.4543,0.4544,0,0,0,0,0,0,0,0,0,0,0,0,0,0.4258,0.4164,0.4424,0.4444,0.4447,0.4506,0.4507,0.4509,0.4523,0.4522,0.4521,0.4521,0.4541,0.4543,0.4544,0.4571,0,0,0.4549,0.455,0,0,0,0,0,0,0,0,0.4253,0.4268,0.444,0.4443,0.4446,0.4505,0.4421,0.4527,0.4523,0.4492,0.4521,0.452,0.4525,0.4528,0.4544,0.4572,0.4572,0.4549,0.455,0.4551,0.4551,0,0,0,0,0,0,0,0.4246,0.4264,0.4455,0.4441,0.4445,0.4408,0.4422,0.4441,0.451,0.4495,0.4497,0.4509,0.4526,0.4543,0.4545,0.4573,0.4549,0.455,0.4551,0.4552,0.4641,0.4643,0,0,0,0,0,0,0.4247,0.4259,0.4452,0.4458,0.4347,0.4414,0.443,0.4486,0.4511,0.4516,0.4509,0.4509,0.454,0.4543,0.4545,0.4592,0.4551,0.4552,0.4553,0.464,0.4642,0.4643,0,0,0,0,0,0,0.4242,0.4266,0.4449,0.4357,0.4378,0.442,0.4482,0.4488,0.4506,0.4523,0.4525,0.4522,0.454,0.4543,0.4581,0.4592,0.4553,0.4554,0.4638,0.464,0.4642,0.4676,0,0,0,0,0,0,0.4235,0.4264,0.4307,0.436,0.4384,0.4488,0.4483,0.449,0.4515,0.4516,0.4535,0.4536,0.4539,0.4579,0.4583,0.4594,0.4556,0.4636,0.4639,0.4642,0.4673,0.4679,0.4684,0,0,0,0,0,0.4226,0.4272,0.431,0.4333,0.4443,0.4489,0.4498,0.4521,0.4517,0.4532,0.4555,0.4536,0.4598,0.4582,0.4586,0.4597,0.4635,0.4638,0.4641,0.4671,0.4678,0.4684,0,0,0,0,0,0,0.4171,0.428,0.4322,0.4401,0.4449,0.4492,0.4506,0.4525,0.4556,0.4556,0.4562,0.4567,0.4604,0.4602,0.4584,0.4632,0.461,0.4614,0.4631,0.4637,0.4643,0.4682,0.4557,0,0,0,0,0,0.4187,0.4257,0.4339,0.4401,0.4425,0.447,0.4492,0.4515,0.4547,0.456,0.4577,0.4596,0.4622,0.463,0.4654,0.4681,0.4754,0.469,0.4695,0.4699,0.4736,0.4881,0.4905,0.4654,0.4654,0.4653,0,0,0.4186,0.425,0.4293,0.4394,0.443,0.4477,0.448,0.4519,0.4559,0.4557,0.4607,0.4621,0.4637,0.4675,0.4689,0.4671,0.4806,0.4704,0.4707,0.4742,0.4888,0.4913,0.4935,0.4656,0.4655,0.4655,0,0,0.419,0.4274,0.4326,0.4374,0.4441,0.4476,0.4489,0.4547,0.4573,0.4618,0.4638,0.4679,0.4688,0.4733,0.4745,0.4799,0.4837,0.4777,0.483,0.497,0.4993,0.5014,0.5126,0.5157,0.4772,0.4772,0.4772,0,0.4193,0.4285,0.4338,0.4389,0.4437,0.4476,0.4531,0.4564,0.4627,0.4664,0.463,0.4718,0.4725,0.481,0.4824,0.4814,0.4893,0.4798,0.4981,0.5003,0.5025,0.5135,0.5169,0.4774,0.4774,0.4773,0.4773,0,0.4236,0.4311,0.4333,0.4435,0.4477,0.4532,0.4592,0.4636,0.4654,0.4692,0.4769,0.4797,0.4858,0.4848,0.4846,0.4989,0.4996,0.4979,0.4968,0.5053,0.5162,0.5197,0.4777,0.4776,0.4775,0.4775,0,0,0.4264,0.4359,0.4368,0.4427,0.452,0.4561,0.4627,0.4717,0.4778,0.4806,0.4896,0.4932,0.4959,0.4982,0.4997,0.5098,0.5295,0.5099,0.5105,0.5218,0.5606,0.5481,0.5506,0.5314,0.5321,0.5326,0.5619,0,0.4302,0.439,0.4432,0.4526,0.4592,0.4652,0.4713,0.4786,0.4838,0.4928,0.497,0.5051,0.5005,0.505,0.5147,0.5278,0.5391,0.5218,0.5503,0.5511,0.5397,0.5544,0.529,0.5519,0.5653,0.5659,0.5663,0,0.4359,0.4411,0.4499,0.4609,0.4641,0.4692,0.4821,0.4883,0.5,0.5039,0.5124,0.517,0.533,0.5267,0.5547,0.5442,0.5541,0.5616,0.5629,0.5533,0.5452,0.5459,0.5578,0.5369,0.5716,0.5712,0.5708,0,0.4371,0.4475,0.4546,0.4587,0.4696,0.4747,0.4808,0.4917,0.4992,0.514,0.5213,0.537,0.5476,0.5637,0.5766,0.5698,0.6064,0.599,0.597,0.5961,0.5814,0.578,0.5773,0.6211,0.621,0.621,0.6209,0,0.4433,0.4493,0.4554,0.4599,0.4692,0.4759,0.487,0.4949,0.5078,0.5164,0.5283,0.5391,0.5582,0.5773,0.5871,0.6039,0.6165,0.6038,0.6053,0.5811,0.5776,0.5638,0.5566,0.622,0.6218,0.6216,0.6214,0,0.4457,0.4498,0.4584,0.4673,0.4705,0.4769,0.4893,0.4958,0.5096,0.5226,0.5286,0.5493,0.5726,0.59,0.618,0.6173,0.6173,0.6361,0.6043,0.6013,0.5722,0.5661,0.5634,0.5482,0.6401,0.64,0.6399,0,0.4484,0.4528,0.4612,0.4635,0.4677,0.4768,0.4814,0.495,0.5008,0.5257,0.5306,0.5586,0.5701,0.6067,0.6167,0.6357,0.6161,0.6184,0.5989,0.5718,0.5666,0.549,0.5351,0.5822,0.5816,0.5812,0.5808,0,0.4515,0.4532,0.4564,0.4617,0.4659,0.4725,0.4798,0.4853,0.4993,0.5109,0.5258,0.5392,0.5716,0.5773,0.6011,0.6084,0.5853,0.6091,0.5922,0.5319,0.5026,0.4879,0.5603,0.5768,0.5772,0.5775,0.5777,0.5779,0.4494,0.4511,0.4521,0.4564,0.4598,0.4618,0.4613,0.4688,0.4762,0.485,0.5088,0.5166,0.5342,0.563,0.5685,0.5556,0.5613,0.5368,0.5361,0.5241,0.494,0.5553,0.5642,0.5645,0.5648,0.565,0.5652,0,0.4424,0.4429,0.4464,0.4455,0.4419,0.4498,0.4526,0.4468,0.445,0.4606,0.4706,0.4774,0.4833,0.4958,0.5012,0.4858,0.4678,0.4702,0.4391,0.4325,0.4978,0.4786,0.4553,0.4553,0.4554,0.4554,0.4554,0.4554,0.4368,0.4336,0.4347,0.4248,0.4239,0.413,0.4105,0.4054,0.4091,0.4053,0.4045,0.4184,0.4402,0.452,0.4394,0.4293,0.3978,0.3811,0.3839,0.4258,0.4317,0.4373,0.4171,0.3814,0.3813,0.2983,0.2977,0.2972]},{"header":{"parameterUnit":"m.s-1","parameterCategory":2,"la1":30.2991,"la2":30.254,"lo1":-89.0895,"lo2":-89.0444,"dy":0.0017,"dx":0.0017,"nx":28,"ny":28,"refTime":"2024-08-01T03:00:00:Z","depth":"0","parameterNumber":3,"parameterNumberName":"V-component_of_CURRENTS"},"data":[0,0,0,0,0,0,0,0,0,0,0,0,0,0,0,0,0,0,0,0,0,0,0,0,0,0,0,0,0,0,0,0,0,0,0,0,0,0,0,0,0,0,0,0,0,0,0,0,0,0,0,0,0,0,0,0,0,0,-0.0203,-0.0205,0,-0.0334,-0.0335,-0.0337,-0.0414,-0.0414,-0.0414,-0.0414,-0.051,-0.0512,-0.0515,0,0,0,0,0,0,0,0,0,0,0,0,0,-0.0088,-0.0089,-0.0203,-0.0205,-0.0206,-0.0333,-0.0335,-0.0338,-0.0414,-0.0414,-0.0414,-0.0414,-0.0509,-0.0512,-0.0515,0,0,0,0,0,0,0,0,0,0,0,0,0,-0.0172,-0.009,-0.0203,-0.0257,-0.0263,-0.0333,-0.0336,-0.0338,-0.0414,-0.0414,-0.0414,-0.0414,-0.0508,-0.0512,-0.0515,-0.0536,0,0,-0.0527,-0.0528,0,0,0,0,0,0,0,0,-0.0167,-0.0177,-0.0248,-0.0254,-0.026,-0.0355,-0.033,-0.0402,-0.0414,-0.0359,-0.0414,-0.0414,-0.0453,-0.0461,-0.049,-0.0541,-0.0545,-0.0527,-0.0529,-0.0531,-0.0532,0,0,0,0,0,0,0,-0.0161,-0.0172,-0.0258,-0.0249,-0.0257,-0.0298,-0.031,-0.0345,-0.0405,-0.0364,-0.0369,-0.0379,-0.0457,-0.0486,-0.0493,-0.0547,-0.0527,-0.053,-0.0533,-0.0534,-0.0605,-0.0605,0,0,0,0,0,0,-0.0136,-0.0166,-0.0254,-0.0261,-0.021,-0.0299,-0.0313,-0.0327,-0.0406,-0.0418,-0.0379,-0.0382,-0.048,-0.0488,-0.0496,-0.0472,-0.0531,-0.0534,-0.0537,-0.0606,-0.0605,-0.0605,0,0,0,0,0,0,-0.0133,-0.0143,-0.0248,-0.0214,-0.023,-0.0301,-0.0316,-0.0329,-0.0355,-0.0417,-0.0429,-0.039,-0.048,-0.0491,-0.0517,-0.0479,-0.0536,-0.054,-0.0606,-0.0605,-0.0605,-0.0459,0,0,0,0,0,0,-0.0129,-0.0141,-0.014,-0.0213,-0.0231,-0.028,-0.0316,-0.0332,-0.036,-0.0366,-0.0431,-0.044,-0.0481,-0.0511,-0.0521,-0.0485,-0.0542,-0.0606,-0.0606,-0.0605,-0.0464,-0.0453,-0.0444,0,0,0,0,0,-0.0125,-0.0111,-0.0139,-0.0149,-0.0228,-0.028,-0.0293,-0.0346,-0.036,-0.037,-0.0408,-0.0438,-0.0514,-0.0514,-0.0525,-0.0489,-0.0607,-0.0606,-0.0605,-0.0468,-0.0455,-0.0444,0,0,0,0,0,0,-0.0057,-0.012,-0.0151,-0.0158,-0.0213,-0.0291,-0.0294,-0.0337,-0.0379,-0.0374,-0.0435,-0.0447,-0.0457,-0.0502,-0.05,-0.0513,-0.0565,-0.0566,-0.0457,-0.0445,-0.0435,-0.0356,-0.0546,0,0,0,0,0,-0.0042,-0.0051,-0.0125,-0.0131,-0.0148,-0.0222,-0.0247,-0.0287,-0.0334,-0.0354,-0.04,-0.0441,-0.0465,-0.0477,-0.0518,-0.0521,-0.0509,-0.0509,-0.0499,-0.049,-0.0436,-0.0386,-0.0364,-0.0602,-0.0602,-0.0602,0,0,-0.002,-0.0052,-0.0061,-0.0117,-0.0158,-0.0167,-0.0237,-0.0265,-0.0264,-0.0355,-0.0358,-0.0411,-0.0462,-0.0466,-0.0473,-0.0494,-0.0423,-0.0489,-0.048,-0.043,-0.0383,-0.0359,-0.0337,-0.0602,-0.0602,-0.0602,0,0,0.0036,-0.0005,0.0011,-0.0026,-0.0078,-0.0122,-0.0124,-0.0199,-0.0219,-0.0248,-0.0295,-0.031,-0.0382,-0.0384,-0.0398,-0.0357,-0.0376,-0.0394,-0.0266,-0.0219,-0.0197,-0.0177,-0.0144,-0.0122,-0.0381,-0.0381,-0.0381,0,0.0068,0.008,0.0006,0.0015,0.0015,-0.0089,-0.006,-0.0105,-0.018,-0.0156,-0.0229,-0.0263,-0.0325,-0.0267,-0.0266,-0.0323,-0.031,-0.0302,-0.0198,-0.0179,-0.0161,-0.0131,-0.0109,-0.0374,-0.0375,-0.0375,-0.0376,0,0.0136,0.0144,0.0156,0.0139,0.012,0.0125,0.0063,0.0052,0.0008,-0.0024,-0.0003,-0.0091,-0.0087,-0.0134,-0.0191,-0.0095,-0.0131,-0.0191,-0.021,-0.0126,-0.0103,-0.0082,-0.0364,-0.0366,-0.0368,-0.037,0,0,0.0228,0.0211,0.0218,0.025,0.0197,0.02,0.0217,0.0231,0.0295,0.0195,0.029,0.0206,0.0171,0.0154,0.008,0.01,0.02,0.0015,0.0014,0.0082,0.0309,0.0188,0.0198,0.0161,0.0166,0.0169,0.0273,0,0.0316,0.0381,0.0345,0.0419,0.0458,0.0399,0.044,0.0435,0.0414,0.0465,0.0401,0.0432,0.0276,0.0293,0.0291,0.0233,0.0263,0.0178,0.019,0.0192,0.0102,0.0221,0.0172,0.0253,0.0293,0.0296,0.0298,0,0.0422,0.0452,0.0547,0.0607,0.0625,0.0653,0.0747,0.0763,0.0794,0.0788,0.0801,0.0736,0.0763,0.0601,0.0591,0.0544,0.0459,0.0388,0.0389,0.0254,0.011,0.0173,0.0288,0.0014,0.0329,0.0327,0.0325,0,0.0569,0.0615,0.0712,0.0722,0.0753,0.082,0.0846,0.0884,0.0949,0.1014,0.1077,0.1059,0.1083,0.0985,0.0795,0.0724,0.077,0.0653,0.0472,0.0461,0.0415,0.0392,0.0303,0.0679,0.0679,0.0679,0.0679,0,0.0707,0.0787,0.0794,0.0848,0.0986,0.0968,0.1126,0.1147,0.1228,0.1348,0.1266,0.1363,0.1181,0.1143,0.0944,0.0784,0.0895,0.0552,0.0504,0.0455,0.0435,0.0185,0.0054,0.0683,0.0682,0.0681,0.068,0,0.086,0.0863,0.097,0.1026,0.1059,0.1159,0.1267,0.1374,0.144,0.1601,0.1639,0.1646,0.1606,0.1389,0.1253,0.0997,0.0683,0.0742,0.0681,0.0622,0.0145,0.0025,-0.0068,-0.0167,0.0591,0.0589,0.0587,0,0.0943,0.1015,0.1094,0.1148,0.1179,0.1306,0.1397,0.1474,0.1585,0.177,0.1869,0.1896,0.1917,0.1662,0.126,0.0944,0.0679,0.0634,0.047,0.0163,-0.0004,-0.0114,-0.0197,0.0471,0.0469,0.0467,0.0465,0,0.1081,0.1105,0.1168,0.1278,0.1376,0.15,0.1636,0.1755,0.1876,0.2033,0.2227,0.2278,0.204,0.1714,0.1234,0.0961,0.0424,0.0576,0.031,-0.0042,-0.0206,-0.034,0.0337,0.0447,0.0448,0.045,0.0451,0.0452,0.1155,0.1215,0.1278,0.1389,0.1506,0.1661,0.1779,0.1939,0.2149,0.2389,0.2455,0.2557,0.2058,0.1416,0.1035,0.0239,0.0296,-0.0039,-0.0133,-0.0198,-0.0372,0.0242,0.0239,0.0239,0.024,0.024,0.0241,0,0.1199,0.1262,0.1373,0.1497,0.1631,0.1686,0.1907,0.2037,0.2279,0.2522,0.2698,0.2467,0.1828,0.1162,0.0135,-0.0391,-0.0557,-0.0669,-0.0816,-0.0847,-0.0245,-0.034,-0.0531,-0.0531,-0.0531,-0.053,-0.053,-0.053,0.1217,0.1302,0.1359,0.1559,0.1665,0.1854,0.1977,0.2191,0.2383,0.2634,0.2683,0.2709,0.214,0.041,-0.0817,-0.1081,-0.1372,-0.1446,-0.157,-0.119,-0.1139,-0.1091,-0.1213,-0.1584,-0.1586,-0.2143,-0.2148,-0.2153]}],[{"header":{"parameterUnit":"m.s-1","parameterCategory":2,"la1":30.2991,"la2":30.254,"lo1":-89.0895,"lo2":-89.0444,"dy":0.0017,"dx":0.0017,"nx":28,"ny":28,"refTime":"2024-08-01T03:00:00:Z","depth":"2","parameterNumber":2,"parameterNumberName":"U-component_of_CURRENTS"},"data":[0,0,0,0,0,0,0,0,0,0,0,0,0,0,0,0,0,0,0,0,0,0,0,0,0,0,0,0,0,0,0,0,0,0,0,0,0,0,0,0,0,0,0,0,0,0,0,0,0,0,0,0,0,0,0,0,0,0,0.3229,0.323,0,0.3091,0.3088,0.3085,0.3051,0.3054,0.3057,0.3059,0.3064,0.3061,0.3059,0,0,0,0,0,0,0,0,0,0,0,0,0,0.3053,0.3057,0.3229,0.323,0.323,0.3092,0.3088,0.3084,0.305,0.3054,0.3057,0.3061,0.3065,0.3062,0.3059,0,0,0,0,0,0,0,0,0,0,0,0,0,0.3024,0.3058,0.3229,0.3213,0.3211,0.3093,0.3088,0.3083,0.305,0.3054,0.3058,0.3062,0.3066,0.3062,0.3058,0.2947,0,0,0.3046,0.3045,0,0,0,0,0,0,0,0,0.3026,0.3028,0.3215,0.3214,0.3213,0.3112,0.3028,0.3052,0.3048,0.3088,0.3059,0.3065,0.3104,0.3097,0.3028,0.2947,0.2947,0.3046,0.3044,0.3042,0.3041,0,0,0,0,0,0,0,0.3029,0.3031,0.3153,0.3215,0.3214,0.3073,0.3075,0.3028,0.3059,0.3085,0.3087,0.3105,0.3102,0.3032,0.3029,0.2947,0.3046,0.3043,0.304,0.3039,0.3059,0.3062,0,0,0,0,0,0,0.3107,0.3036,0.3157,0.3151,0.3153,0.3076,0.3077,0.3122,0.3056,0.3056,0.3102,0.3105,0.3036,0.3034,0.303,0.314,0.3042,0.3038,0.3036,0.3056,0.306,0.3063,0,0,0,0,0,0,0.3104,0.312,0.3163,0.3105,0.3104,0.308,0.3127,0.3117,0.3131,0.3072,0.3071,0.314,0.304,0.3035,0.3078,0.3132,0.3037,0.3033,0.3053,0.3057,0.3061,0.3204,0,0,0,0,0,0,0.31,0.312,0.3112,0.3112,0.3111,0.3113,0.3125,0.3112,0.3142,0.3145,0.3102,0.3101,0.3043,0.3085,0.3075,0.3125,0.303,0.3049,0.3055,0.306,0.3196,0.3213,0.3228,0,0,0,0,0,0.3094,0.3082,0.3113,0.3125,0.3126,0.3115,0.3096,0.3076,0.3141,0.3111,0.3146,0.3107,0.3112,0.3083,0.3071,0.3121,0.3047,0.3053,0.3059,0.3189,0.321,0.3227,0,0,0,0,0,0,0.3023,0.3079,0.3114,0.3128,0.314,0.3119,0.3074,0.3122,0.3111,0.3136,0.3128,0.3125,0.3179,0.3137,0.3107,0.3148,0.3078,0.3082,0.3181,0.32,0.3215,0.3259,0.3027,0,0,0,0,0,0.3008,0.3025,0.3064,0.3093,0.3088,0.3106,0.3091,0.3108,0.313,0.313,0.3147,0.3161,0.3171,0.3186,0.3154,0.3171,0.3219,0.3203,0.3218,0.3232,0.3262,0.3431,0.3466,0.3084,0.3084,0.3084,0,0,0.3017,0.3039,0.3061,0.3077,0.3073,0.3098,0.3102,0.3109,0.3185,0.3133,0.3225,0.3206,0.3189,0.321,0.3231,0.3199,0.3361,0.324,0.3252,0.3275,0.3442,0.348,0.3513,0.3088,0.3088,0.3087,0,0,0.3025,0.3043,0.3042,0.3053,0.3068,0.3082,0.3128,0.3154,0.3195,0.3268,0.3276,0.3327,0.3324,0.3333,0.334,0.3432,0.3436,0.3414,0.3531,0.3695,0.3729,0.376,0.3851,0.3889,0.3428,0.3428,0.3428,0,0.3003,0.3069,0.3038,0.3045,0.3101,0.3123,0.3185,0.3198,0.3265,0.3327,0.3329,0.3416,0.3395,0.3483,0.3508,0.3472,0.3544,0.3457,0.3721,0.3752,0.3781,0.3868,0.3907,0.3436,0.3435,0.3434,0.3433,0,0.307,0.3082,0.3087,0.3143,0.3165,0.3218,0.3282,0.333,0.3424,0.347,0.3589,0.357,0.3645,0.3631,0.3596,0.3771,0.3747,0.3721,0.3679,0.3829,0.3909,0.3948,0.3447,0.3444,0.3442,0.344,0,0,0.3166,0.313,0.3147,0.3185,0.3246,0.3293,0.3401,0.351,0.3627,0.3673,0.3853,0.3859,0.3871,0.3882,0.3854,0.3967,0.4209,0.3938,0.3943,0.404,0.4551,0.4277,0.4292,0.4248,0.4256,0.4262,0.4518,0,0.325,0.3281,0.3269,0.3381,0.3431,0.3474,0.3578,0.3672,0.3763,0.3904,0.3945,0.4065,0.3966,0.4027,0.4129,0.4209,0.4322,0.414,0.4381,0.4387,0.4138,0.4332,0.3965,0.414,0.4556,0.4562,0.4567,0,0.3382,0.3384,0.3469,0.3528,0.3558,0.3636,0.3842,0.3926,0.4065,0.4138,0.425,0.4283,0.4456,0.4359,0.4606,0.4505,0.4549,0.4582,0.4593,0.432,0.4188,0.4061,0.4195,0.4632,0.4626,0.4622,0.4617,0,0.3536,0.3563,0.3647,0.368,0.3723,0.381,0.3891,0.4019,0.4091,0.4326,0.4405,0.4593,0.4713,0.4851,0.4856,0.4812,0.5092,0.5051,0.4832,0.4811,0.4532,0.4471,0.5244,0.5244,0.5243,0.5243,0.5242,0,0.3646,0.3707,0.3724,0.376,0.3873,0.3938,0.407,0.4157,0.4308,0.4365,0.4543,0.4613,0.4854,0.4972,0.4999,0.5013,0.5228,0.4901,0.4889,0.456,0.4501,0.494,0.4901,0.5252,0.525,0.5248,0.5247,0,0.3669,0.3718,0.3779,0.3863,0.3905,0.3989,0.408,0.4132,0.434,0.4443,0.4536,0.4744,0.4923,0.5041,0.5264,0.5159,0.5226,0.5146,0.4688,0.4614,0.4815,0.4781,0.5056,0.5049,0.5043,0.5038,0.5034,0,0.3625,0.3666,0.3781,0.3784,0.3786,0.3903,0.3919,0.4122,0.4157,0.4423,0.4441,0.4711,0.4743,0.4962,0.493,0.4994,0.5096,0.4623,0.4454,0.4851,0.4813,0.4787,0.4762,0.4162,0.4152,0.4143,0.4136,0,0.3457,0.3533,0.3522,0.3575,0.362,0.366,0.3739,0.3792,0.3997,0.4133,0.427,0.4374,0.4539,0.4438,0.4484,0.4441,0.4605,0.4435,0.5088,0.4201,0.4011,0.3971,0.3976,0.4056,0.4064,0.407,0.4074,0.4078,0.3254,0.3226,0.3248,0.3269,0.3331,0.3377,0.3384,0.3476,0.3578,0.3698,0.3885,0.3936,0.4021,0.3922,0.3828,0.3809,0.4099,0.395,0.398,0.4018,0.3804,0.3607,0.3536,0.3541,0.3545,0.3548,0.3552,0,0.294,0.2956,0.292,0.2968,0.2954,0.3125,0.3184,0.3165,0.3225,0.3332,0.3414,0.3164,0.311,0.3265,0.3097,0.307,0.3074,0.2977,0.2978,0.3057,0.3127,0.2868,0.2353,0.235,0.2346,0.2343,0,0,0.276,0.2648,0.2658,0.2577,0.2655,0.2671,0.2716,0.2747,0.2805,0.2707,0.2724,0.2884,0.3105,0.2664,0.2613,0.2472,0.2744,0.2378,0.3338,0.3414,0.348,0.3683,0.337,0,0,0,0,0]},{"header":{"parameterUnit":"m.s-1","parameterCategory":2,"la1":30.2991,"la2":30.254,"lo1":-89.0895,"lo2":-89.0444,"dy":0.0017,"dx":0.0017,"nx":28,"ny":28,"refTime":"2024-08-01T03:00:00:Z","depth":"2","parameterNumber":3,"parameterNumberName":"V-component_of_CURRENTS"},"data":[0,0,0,0,0,0,0,0,0,0,0,0,0,0,0,0,0,0,0,0,0,0,0,0,0,0,0,0,0,0,0,0,0,0,0,0,0,0,0,0,0,0,0,0,0,0,0,0,0,0,0,0,0,0,0,0,0,0,-0.0039,-0.0038,0,-0.0016,-0.0016,-0.0016,-0.0109,-0.0111,-0.0114,-0.0116,-0.0257,-0.0258,-0.026,0,0,0,0,0,0,0,0,0,0,0,0,0,-0.0024,-0.0025,-0.0039,-0.0038,-0.0038,-0.0016,-0.0016,-0.0016,-0.0108,-0.0111,-0.0114,-0.0117,-0.0257,-0.0258,-0.026,0,0,0,0,0,0,0,0,0,0,0,0,0,-0.0022,-0.0025,-0.0039,-0.0078,-0.0081,-0.0016,-0.0016,-0.0016,-0.0108,-0.0111,-0.0115,-0.0118,-0.0256,-0.0258,-0.026,-0.0202,0,0,-0.0267,-0.0268,0,0,0,0,0,0,0,0,-0.0023,-0.0023,-0.0073,-0.0075,-0.0079,-0.0066,-0.0062,-0.0085,-0.0107,-0.0101,-0.0116,-0.012,-0.0203,-0.021,-0.0201,-0.0209,-0.0215,-0.0268,-0.0269,-0.027,-0.0271,0,0,0,0,0,0,0,-0.0023,-0.0024,-0.0034,-0.0072,-0.0075,-0.0049,-0.0055,-0.0066,-0.0138,-0.0102,-0.0108,-0.0098,-0.0207,-0.0198,-0.0205,-0.0217,-0.0268,-0.027,-0.0271,-0.0272,-0.0334,-0.0334,0,0,0,0,0,0,-0.0021,-0.0025,-0.0034,-0.0032,-0.0055,-0.0047,-0.0053,-0.0069,-0.0135,-0.0146,-0.0095,-0.0103,-0.0192,-0.0202,-0.0211,-0.0265,-0.027,-0.0272,-0.0273,-0.0334,-0.0334,-0.0334,0,0,0,0,0,0,-0.0022,-0.0024,-0.0035,-0.0023,-0.0023,-0.0044,-0.0061,-0.0067,-0.0115,-0.0127,-0.0143,-0.0144,-0.0195,-0.0207,-0.026,-0.0268,-0.0273,-0.0275,-0.0333,-0.0334,-0.0334,-0.0299,0,0,0,0,0,0,-0.0022,-0.0024,-0.0016,-0.0024,-0.0024,-0.0011,-0.0057,-0.0064,-0.0098,-0.0109,-0.0172,-0.0185,-0.0199,-0.0257,-0.0263,-0.0271,-0.0277,-0.0333,-0.0334,-0.0334,-0.03,-0.0298,-0.0297,0,0,0,0,0,-0.0022,0.0012,-0.0017,-0.0016,-0.002,-0.0009,-0.0007,-0.0035,-0.0097,-0.0098,-0.016,-0.0187,-0.0265,-0.0258,-0.0265,-0.0275,-0.0333,-0.0334,-0.0334,-0.03,-0.0298,-0.0297,0,0,0,0,0,0,0.0021,0.0006,-0.0026,-0.0003,-0.0017,-0.0024,0.0001,-0.0057,-0.0102,-0.0125,-0.0185,-0.0199,-0.0242,-0.0266,-0.0258,-0.0295,-0.0305,-0.0307,-0.0277,-0.0275,-0.0274,-0.0258,-0.0279,0,0,0,0,0,0.0037,0.0039,0.0025,0.0031,0.0041,0.0002,0.0003,-0.0033,-0.0072,-0.0098,-0.0156,-0.0208,-0.0234,-0.0267,-0.0282,-0.0305,-0.0305,-0.0318,-0.0317,-0.0315,-0.0308,-0.0318,-0.0316,-0.0337,-0.0337,-0.0337,0,0,0.0036,0.0043,0.0032,0.004,0.0036,0.0038,-0.0008,-0.001,-0.0045,-0.0103,-0.0168,-0.0199,-0.0238,-0.0256,-0.028,-0.0291,-0.0306,-0.0316,-0.0314,-0.0307,-0.0318,-0.0316,-0.0314,-0.0337,-0.0337,-0.0337,0,0,0.0061,0.0062,0.0076,0.0076,0.0081,0.0066,0.0046,0.001,-0.003,-0.0087,-0.0132,-0.0181,-0.0242,-0.0257,-0.0277,-0.0281,-0.0289,-0.0293,-0.0282,-0.0292,-0.029,-0.0288,-0.0265,-0.0261,-0.0302,-0.0302,-0.0302,0,0.0075,0.0079,0.0082,0.0105,0.0107,0.0061,0.0061,0.0035,-0.0036,-0.0051,-0.0113,-0.0189,-0.024,-0.0249,-0.026,-0.0277,-0.027,-0.0284,-0.0288,-0.0286,-0.0285,-0.0262,-0.0259,-0.03,-0.03,-0.0301,-0.0301,0,0.0079,0.0106,0.0128,0.0123,0.0124,0.0132,0.0096,0.0072,-0.0002,-0.004,-0.0085,-0.0147,-0.0182,-0.022,-0.0253,-0.0259,-0.0249,-0.0274,-0.0287,-0.0281,-0.0257,-0.0254,-0.0298,-0.0298,-0.0299,-0.0299,0,0,0.0076,0.0121,0.0131,0.015,0.0137,0.0144,0.0115,0.0101,0.0099,0.0004,-0.0005,-0.0097,-0.0117,-0.0141,-0.0179,-0.0224,-0.0224,-0.0252,-0.0253,-0.0218,-0.0214,-0.0318,-0.0325,-0.0247,-0.0247,-0.0247,-0.0192,0,0.0087,0.0145,0.0142,0.0171,0.0206,0.0176,0.0169,0.0142,0.0104,0.0099,0.0025,0.0023,-0.0087,-0.0078,-0.0148,-0.0162,-0.0218,-0.0234,-0.0234,-0.0234,-0.032,-0.0327,-0.0287,-0.0245,-0.0189,-0.0188,-0.0188,0,0.0111,0.015,0.0195,0.0243,0.0253,0.0254,0.0269,0.0255,0.025,0.0231,0.02,0.0167,0.014,0.0025,-0.0045,-0.0041,-0.0138,-0.02,-0.0199,-0.0308,-0.0335,-0.0249,-0.0242,-0.0183,-0.0184,-0.0184,-0.0184,0,0.0149,0.0204,0.0248,0.0255,0.0285,0.0302,0.0307,0.0305,0.0324,0.0358,0.0389,0.0336,0.0359,0.0225,0.0066,0.0044,-0.0038,-0.0066,-0.0264,-0.0269,-0.0244,-0.025,-0.0174,-0.0174,-0.0174,-0.0174,-0.0174,0,0.0187,0.0234,0.0287,0.0314,0.037,0.0371,0.0429,0.0436,0.0475,0.0534,0.0488,0.051,0.0403,0.0326,0.0145,-0.0041,0.0033,-0.0258,-0.0274,-0.0232,-0.0237,-0.0198,-0.0202,-0.0172,-0.0172,-0.0173,-0.0173,0,0.0219,0.0264,0.033,0.0379,0.0406,0.0445,0.0506,0.0546,0.0604,0.0687,0.0722,0.0705,0.065,0.0477,0.0313,0.0096,-0.0091,-0.0209,-0.0145,-0.016,-0.032,-0.0322,-0.0342,-0.0346,-0.0349,-0.0351,-0.0354,0,0.0236,0.0285,0.037,0.041,0.0436,0.0504,0.055,0.0609,0.067,0.0773,0.0822,0.0822,0.0814,0.0544,0.0218,-0.0053,-0.0132,-0.0276,-0.036,-0.033,-0.0342,-0.034,-0.0338,-0.0274,-0.0275,-0.0276,-0.0277,0,0.0253,0.0298,0.0335,0.0439,0.0507,0.0582,0.0671,0.0764,0.0859,0.0981,0.1112,0.1131,0.0864,0.0615,0.0186,-0.0042,-0.0214,-0.0313,-0.026,-0.0282,-0.0274,-0.0284,-0.0282,-0.0286,-0.0285,-0.0285,-0.0284,-0.0284,0.0261,0.0296,0.0383,0.0473,0.0558,0.0706,0.0827,0.0957,0.1155,0.1373,0.1304,0.136,0.0979,0.0494,0.0094,-0.0302,-0.0293,-0.0444,-0.0436,-0.0427,-0.0474,-0.0478,-0.0532,-0.0532,-0.0533,-0.0533,-0.0533,0,0.0302,0.0354,0.0413,0.0574,0.0697,0.0735,0.0939,0.1116,0.1425,0.1517,0.1649,0.1317,0.0977,0.0561,-0.0036,-0.0441,-0.0428,-0.0553,-0.044,-0.043,-0.0421,-0.0464,-0.0521,-0.0522,-0.0522,-0.0523,0,0,0.0332,0.0423,0.0467,0.0708,0.0816,0.105,0.1207,0.1468,0.162,0.1784,0.1785,0.1668,0.1124,0.0686,0.0162,-0.0162,-0.0199,-0.0227,-0.02,0.0004,0.0019,-0.033,-0.0383,0,0,0,0,0]}],[{"header":{"parameterUnit":"m.s-1","parameterCategory":2,"la1":30.2991,"la2":30.254,"lo1":-89.0895,"lo2":-89.0444,"dy":0.0017,"dx":0.0017,"nx":28,"ny":28,"refTime":"2024-08-01T03:00:00:Z","depth":"4","parameterNumber":2,"parameterNumberName":"U-component_of_CURRENTS"},"data":[0,0,0,0,0,0,0,0,0,0,0,0,0,0,0,0,0,0,0,0,0,0,0,0,0,0,0,0,0,0,0,0,0,0,0,0,0,0,0,0,0,0,0,0,0,0,0,0,0,0,0,0,0,0,0,0,0,0,0.1131,0.1133,0,0.1309,0.1312,0.1314,0.1445,0.1445,0.1445,0.1446,0.1528,0.153,0.1532,0,0,0,0,0,0,0,0,0,0,0,0,0,0.116,0.1158,0.1131,0.1133,0.1134,0.1309,0.1312,0.1315,0.1444,0.1445,0.1445,0.1446,0.1528,0.153,0.1532,0,0,0,0,0,0,0,0,0,0,0,0,0,0.123,0.1157,0.1131,0.1214,0.1223,0.1308,0.1312,0.1316,0.1444,0.1445,0.1446,0.1446,0.1527,0.1529,0.1532,0.1537,0,0,0.154,0.1542,0,0,0,0,0,0,0,0,0.1226,0.123,0.12,0.1209,0.1218,0.1348,0.1352,0.1382,0.1444,0.1368,0.1446,0.1446,0.1454,0.1462,0.1507,0.1541,0.1544,0.1541,0.1542,0.1544,0.1544,0,0,0,0,0,0,0,0.1221,0.1225,0.121,0.1202,0.1213,0.133,0.1339,0.1361,0.141,0.1375,0.1383,0.139,0.1459,0.1504,0.1509,0.1545,0.1541,0.1543,0.1545,0.1546,0.1673,0.1674,0,0,0,0,0,0,0.1168,0.1218,0.1204,0.1214,0.1215,0.1327,0.1338,0.1312,0.1412,0.1426,0.139,0.1395,0.1499,0.1506,0.1512,0.1623,0.1544,0.1546,0.1548,0.1671,0.1673,0.1675,0,0,0,0,0,0,0.1168,0.1164,0.1196,0.1217,0.1228,0.1323,0.1296,0.1315,0.1413,0.1422,0.1437,0.147,0.15,0.1509,0.1554,0.1623,0.1547,0.155,0.1669,0.1672,0.1674,0.1779,0,0,0,0,0,0,0.1167,0.1162,0.1174,0.1211,0.1224,0.1265,0.1295,0.1318,0.1408,0.142,0.1495,0.1501,0.1501,0.1549,0.1556,0.1625,0.1552,0.1667,0.167,0.1673,0.1773,0.1785,0.1795,0,0,0,0,0,0.1167,0.1175,0.1173,0.1174,0.122,0.1265,0.1286,0.1362,0.1412,0.1456,0.1497,0.1501,0.1576,0.1552,0.156,0.1632,0.1665,0.1669,0.1673,0.1769,0.1783,0.1795,0,0,0,0,0,0,0.1184,0.1189,0.1188,0.1192,0.1228,0.1285,0.1349,0.1394,0.1472,0.1497,0.1516,0.1524,0.1605,0.1588,0.1562,0.1675,0.1625,0.1631,0.1695,0.1708,0.1719,0.171,0.1554,0,0,0,0,0,0.1185,0.1198,0.1208,0.1213,0.1238,0.1304,0.1353,0.1393,0.1443,0.1485,0.1518,0.1561,0.1621,0.1638,0.1675,0.172,0.172,0.1771,0.1782,0.1791,0.1788,0.179,0.18,0.1688,0.1688,0.1688,0,0,0.1164,0.1195,0.1183,0.1221,0.1268,0.1307,0.134,0.1413,0.1459,0.1473,0.1561,0.161,0.1645,0.1712,0.1744,0.1707,0.1843,0.1796,0.1804,0.1795,0.1795,0.1806,0.1816,0.1691,0.169,0.169,0,0,0.1172,0.1184,0.1211,0.1247,0.1321,0.1356,0.1382,0.1448,0.1505,0.1567,0.1614,0.1686,0.1746,0.1789,0.182,0.1903,0.1913,0.1934,0.1969,0.1973,0.1982,0.1989,0.2089,0.2104,0.1922,0.1922,0.1922,0,0.1177,0.1192,0.1229,0.1283,0.1324,0.1377,0.1422,0.1478,0.1547,0.16,0.1597,0.1754,0.1782,0.1894,0.1928,0.1932,0.1958,0.1923,0.1987,0.1993,0.1999,0.2098,0.2114,0.1927,0.1927,0.1926,0.1926,0,0.1182,0.1228,0.1258,0.1327,0.1379,0.1428,0.148,0.1544,0.1613,0.1666,0.1796,0.1836,0.1932,0.1962,0.1973,0.2062,0.2084,0.2016,0.1954,0.2017,0.2119,0.2133,0.1935,0.1933,0.1932,0.193,0,0,0.1117,0.1239,0.1256,0.1306,0.1414,0.1444,0.1535,0.163,0.1712,0.1779,0.1884,0.1994,0.2048,0.2085,0.2126,0.2115,0.2216,0.2086,0.2084,0.2188,0.2304,0.2141,0.2142,0.2151,0.2152,0.2153,0.2389,0,0.1129,0.1239,0.1294,0.1377,0.1437,0.1513,0.1598,0.1692,0.1777,0.1877,0.1961,0.2083,0.2088,0.2166,0.2167,0.2204,0.2245,0.2164,0.2223,0.2227,0.2073,0.2146,0.2156,0.24,0.2403,0.2405,0.2407,0,0.1106,0.1214,0.132,0.1444,0.1475,0.1531,0.1682,0.1756,0.1909,0.1991,0.2115,0.2188,0.2299,0.2239,0.2346,0.2298,0.2325,0.2319,0.2326,0.2131,0.2085,0.2301,0.2432,0.243,0.2428,0.2427,0.2425,0,0.1047,0.1199,0.1303,0.1342,0.1506,0.1575,0.1653,0.1811,0.1903,0.2078,0.2162,0.2301,0.2387,0.241,0.244,0.2415,0.249,0.2455,0.2357,0.2353,0.2384,0.2372,0.2506,0.2505,0.2505,0.2504,0.2503,0,0.1007,0.1085,0.1295,0.1334,0.1447,0.1579,0.1702,0.179,0.1984,0.2084,0.223,0.2315,0.2412,0.247,0.2483,0.2467,0.2552,0.2387,0.2377,0.2438,0.2428,0.2401,0.2385,0.2513,0.2511,0.2509,0.2508,0,0.0895,0.1041,0.1144,0.1349,0.1411,0.1483,0.1677,0.1765,0.1976,0.2103,0.2176,0.2368,0.2462,0.2534,0.2591,0.252,0.2515,0.2485,0.2626,0.2617,0.2401,0.2389,0.2462,0.2457,0.2454,0.245,0.2448,0,0.0852,0.092,0.11,0.1161,0.1252,0.1405,0.1499,0.1723,0.1812,0.2097,0.2122,0.2324,0.2418,0.2408,0.2484,0.2551,0.2491,0.2514,0.2389,0.2401,0.2386,0.2379,0.2373,0.2442,0.2441,0.244,0.2439,0,0.0778,0.085,0.0925,0.104,0.1138,0.124,0.1384,0.1454,0.1718,0.1914,0.2043,0.2148,0.2248,0.2323,0.2376,0.2395,0.25,0.2475,0.2483,0.2367,0.2378,0.2365,0.2363,0.2426,0.2428,0.2429,0.243,0,0.0707,0.0719,0.082,0.0897,0.0996,0.1057,0.1156,0.1303,0.1447,0.1772,0.1801,0.2017,0.2203,0.2245,0.2279,0.2298,0.2287,0.22,0.2222,0.2238,0.2043,0.2017,0.1958,0,0,0,0,0,0.0638,0.0633,0.0684,0.0752,0.0832,0.0904,0.1076,0.121,0.1456,0.1487,0.1667,0.1764,0.191,0.2021,0.2005,0.2193,0.2278,0.2163,0.2182,0.2355,0.237,0.2155,0,0,0,0,0,0,0.0586,0.0619,0.0631,0.0626,0.0654,0.0747,0.0851,0.103,0.1076,0.1334,0.1412,0.1629,0.1777,0.1887,0.1956,0.1994,0.1965,0.2314,0.2309,0.2347,0.236,0.2372,0.2156,0,0,0,0,0]},{"header":{"parameterUnit":"m.s-1","parameterCategory":2,"la1":30.2991,"la2":30.254,"lo1":-89.0895,"lo2":-89.0444,"dy":0.0017,"dx":0.0017,"nx":28,"ny":28,"refTime":"2024-08-01T03:00:00:Z","depth":"4","parameterNumber":3,"parameterNumberName":"V-component_of_CURRENTS"},"data":[0,0,0,0,0,0,0,0,0,0,0,0,0,0,0,0,0,0,0,0,0,0,0,0,0,0,0,0,0,0,0,0,0,0,0,0,0,0,0,0,0,0,0,0,0,0,0,0,0,0,0,0,0,0,0,0,0,0,0.0345,0.0344,0,0.0276,0.0275,0.0274,0.0228,0.0228,0.0228,0.0228,0.0146,0.0144,0.0142,0,0,0,0,0,0,0,0,0,0,0,0,0,0.0266,0.0269,0.0345,0.0344,0.0344,0.0276,0.0275,0.0274,0.0228,0.0228,0.0228,0.0228,0.0147,0.0144,0.0141,0,0,0,0,0,0,0,0,0,0,0,0,0,0.0256,0.027,0.0345,0.0316,0.0313,0.0277,0.0275,0.0273,0.0228,0.0228,0.0228,0.0228,0.0148,0.0144,0.0141,0.0118,0,0,0.0131,0.0129,0,0,0,0,0,0,0,0,0.0257,0.0258,0.0321,0.0318,0.0315,0.0264,0.0217,0.0222,0.0228,0.0256,0.0228,0.0228,0.0187,0.018,0.0162,0.0114,0.0111,0.013,0.0128,0.0127,0.0126,0,0,0,0,0,0,0,0.0258,0.026,0.0313,0.032,0.0317,0.0249,0.0248,0.0217,0.0218,0.0253,0.0251,0.025,0.0185,0.0165,0.0159,0.011,0.0131,0.0128,0.0125,0.0124,0.0034,0.0033,0,0,0,0,0,0,0.0284,0.0262,0.0316,0.0312,0.029,0.0251,0.025,0.0277,0.0219,0.0211,0.025,0.0248,0.0171,0.0163,0.0156,0.0131,0.0127,0.0124,0.0122,0.0034,0.0034,0.0033,0,0,0,0,0,0,0.0283,0.0291,0.0318,0.0286,0.0286,0.0254,0.0283,0.0276,0.026,0.0217,0.0209,0.0243,0.017,0.0161,0.0135,0.0128,0.0122,0.0119,0.0035,0.0034,0.0033,0.0078,0,0,0,0,0,0,0.0282,0.0291,0.0311,0.029,0.0289,0.0302,0.0283,0.0274,0.0261,0.0258,0.0208,0.0201,0.017,0.0141,0.0132,0.0123,0.0117,0.0035,0.0034,0.0034,0.0077,0.0079,0.0081,0,0,0,0,0,0.0279,0.0304,0.0313,0.0318,0.0321,0.0302,0.0295,0.0267,0.0261,0.0253,0.0225,0.0202,0.013,0.0138,0.0128,0.0118,0.0035,0.0035,0.0034,0.0076,0.0079,0.0081,0,0,0,0,0,0,0.0277,0.0302,0.031,0.0342,0.0329,0.0296,0.0285,0.0273,0.0243,0.0241,0.0202,0.0191,0.0163,0.0136,0.0146,0.0088,0.0077,0.0074,0.0112,0.0114,0.0116,0.0116,0.0114,0,0,0,0,0,0.0292,0.0321,0.0321,0.0346,0.0341,0.0316,0.0304,0.0291,0.0266,0.0252,0.0222,0.0185,0.0149,0.0131,0.0096,0.0069,0.0009,0.0054,0.0056,0.0057,0.005,-0.0052,-0.006,0.0031,0.0031,0.0031,0,0,0.0305,0.0316,0.0337,0.0347,0.0332,0.0326,0.0307,0.0296,0.0289,0.0249,0.0227,0.0193,0.0144,0.0112,0.0096,0.009,0.0001,0.0056,0.0059,0.005,-0.0054,-0.0063,-0.0071,0.003,0.003,0.003,0,0,0.0319,0.0349,0.0365,0.0357,0.0345,0.0333,0.0336,0.0312,0.0298,0.0281,0.0244,0.0206,0.0163,0.0117,0.0091,0.0081,0.0015,0.0073,0.0081,-0.0016,-0.0025,-0.0033,-0.0115,-0.0131,0.0073,0.0074,0.0074,0,0.0319,0.0356,0.0361,0.0358,0.0355,0.0342,0.0342,0.0325,0.0297,0.028,0.0283,0.0189,0.016,0.0095,0.0099,0.0083,0.0022,0.0081,-0.0015,-0.0025,-0.0034,-0.0116,-0.0134,0.0076,0.0075,0.0075,0.0075,0,0.0341,0.036,0.0362,0.0369,0.0365,0.0362,0.0351,0.0342,0.0334,0.0308,0.0255,0.0205,0.0146,0.0132,0.0119,0.0038,0.0015,0.0,-0.0019,-0.004,-0.0125,-0.0145,0.0079,0.0078,0.0077,0.0077,0,0,0.0358,0.0374,0.0376,0.0382,0.0372,0.0374,0.0366,0.0347,0.0333,0.0296,0.0257,0.0198,0.0163,0.013,0.0091,0.0017,-0.0085,-0.0008,-0.0014,-0.0087,-0.03,-0.0216,-0.0231,-0.012,-0.0123,-0.0126,-0.0331,0,0.0363,0.0377,0.0383,0.0394,0.0399,0.0389,0.0386,0.0368,0.0341,0.03,0.023,0.0182,0.0163,0.0138,0.0057,-0.0048,-0.0137,-0.0028,-0.0272,-0.0279,-0.02,-0.025,-0.0136,-0.0346,-0.0351,-0.0354,-0.0356,0,0.0376,0.0387,0.0408,0.0417,0.0418,0.0428,0.042,0.0411,0.0349,0.0325,0.0249,0.0192,0.0086,0.0078,-0.0142,-0.0073,-0.0183,-0.0269,-0.0279,-0.0232,-0.0232,-0.0325,-0.0393,-0.039,-0.0388,-0.0385,-0.0383,0,0.0393,0.0401,0.0427,0.043,0.0439,0.0451,0.0455,0.0419,0.0424,0.0333,0.0318,0.0165,0.011,-0.0065,-0.0205,-0.0195,-0.0446,-0.0463,-0.0505,-0.0501,-0.0534,-0.0524,-0.0642,-0.0641,-0.0641,-0.064,-0.064,0,0.0395,0.0414,0.0445,0.046,0.0501,0.0485,0.0516,0.0488,0.0457,0.0456,0.0335,0.0295,0.0073,-0.0076,-0.0232,-0.0411,-0.0479,-0.052,-0.0554,-0.0508,-0.0493,-0.0549,-0.0535,-0.0648,-0.0646,-0.0645,-0.0643,0,0.0412,0.0426,0.0462,0.0493,0.0515,0.0547,0.0601,0.0611,0.0567,0.0556,0.0534,0.0376,0.0179,-0.0034,-0.0318,-0.0416,-0.0615,-0.0664,-0.0589,-0.0614,-0.061,-0.0592,-0.077,-0.0769,-0.0768,-0.0767,-0.0766,0,0.0423,0.0447,0.0512,0.0551,0.0575,0.0634,0.0681,0.0678,0.069,0.0615,0.0605,0.0425,0.0306,-0.0044,-0.027,-0.059,-0.061,-0.0721,-0.068,-0.0611,-0.0628,-0.0611,-0.0594,-0.0765,-0.0765,-0.0764,-0.0764,0,0.0452,0.0483,0.0521,0.0605,0.0671,0.0743,0.0798,0.0819,0.0801,0.0778,0.0665,0.0483,0.0267,-0.0015,-0.0244,-0.0468,-0.0657,-0.0712,-0.0716,-0.0679,-0.0607,-0.062,-0.0605,-0.0761,-0.0761,-0.0762,-0.0762,0,0.0485,0.0521,0.058,0.0645,0.0731,0.0793,0.0835,0.0847,0.0861,0.0777,0.0744,0.05,0.0356,0.0048,-0.0167,-0.0369,-0.0427,-0.049,-0.0507,-0.0513,-0.0351,-0.0217,-0.0297,0,0,0,0,0,0.0502,0.0536,0.061,0.0676,0.0757,0.0804,0.0879,0.0905,0.0904,0.0844,0.0796,0.0601,0.0278,0.0121,-0.0071,-0.0162,-0.0469,-0.0391,-0.055,-0.0743,-0.0747,-0.0589,0,0,0,0,0,0,0.0511,0.0579,0.0606,0.0684,0.0727,0.0823,0.0869,0.0879,0.0843,0.0809,0.0634,0.0565,0.024,0.0379,-0.0078,-0.0139,-0.026,-0.0543,-0.0546,-0.0741,-0.0744,-0.0747,-0.0586,0,0,0,0,0]}]]